Location: *
(35.1500°N, 76.6700°W)
Time: 06:16:51
(UTC+00:00)

CSL-04 Debris - Pass Details

Date: 13 October 2019
Orbit: 827 x 848 km, 99.0° (Epoch: 18 November)

Event Time Altitude Azimuth Distance (km) Brightness Sun altitude
Rises 23:22:32 0° 156° (SSE) 3,364 7.1 -10.6°
Reaches altitude 10° 23:24:53 10° 153° (SSE) 2,437 6.4 -11.1°
Maximum altitude 23:30:13 63° 73° (ENE) 932 4.2 -12.2°
Drops below altitude 10° 23:35:36 10° 354° (N) 2,466 6.7 -13.3°
Sets 23:38:00 0° 351° (N) 3,407 7.5 -13.8°
